Date String (YYYY-MM-DD hh:mm:ss) UTC,Instrument flags,absolute air pressure of the measurement (hPa),sample flow rate (lpm),inlet stack bypass flow (lpm),air temperature of the measurement (°C),ambient temperature measured by the external sensor (°C),aerosol sample conditioner tube jacket temperature (°C),OPC LED temperature (°C),internal box temperature (°C),relative humidity of the measurement (%),span deviation,mass concentration of particles derived from Lorenz-Mie calculation of OPC scattering (μg/m³),mass concentration of particles derived from Lorenz-Mie calculation of OPC scattering (μg/m³),mass concentration of particles derived from Lorenz-Mie calculation of OPC scattering (μg/m³)
DateTimeUTC,F1_M11,P_M11,Q1_M11,Q2_M11,T1_M11,T2_M11,T3_M11,T4_M11,T5_M11,U1_M11,ZSPAN_M11,X0_M11,X2_M11,X1_M11
2024-04-08 06:00:00,SystemResetWarning,0824.3,5.01,000.00,018.2,017.2,000.0,026.9,020.0,013.0,0000.0,0007.37,0001.85,0001.20
2024-04-08 06:01:00,SystemResetWarning,0824.3,4.99,000.00,018.2,017.3,000.0,027.0,020.0,012.8,0000.0,0007.54,0001.86,0001.21
2024-04-08 06:02:00,SystemResetWarning,0824.3,5.00,000.00,018.3,017.9,000.0,027.0,020.3,012.8,0000.0,0007.02,0001.86,0001.21
2024-04-08 06:03:00,SystemResetWarning,0824.3,5.01,000.00,018.5,018.7,000.0,027.1,020.8,012.5,0000.0,0006.82,0001.82,0001.21
2024-04-08 06:04:00,SystemResetWarning,0824.2,4.99,000.00,018.7,018.8,000.0,027.0,020.8,012.4,0000.0,0006.81,0001.81,0001.21
2024-04-08 06:05:00,SystemResetWarning,0824.1,4.99,000.00,018.7,018.5,000.0,027.0,020.6,012.4,0000.0,0006.66,0001.77,0001.20
2024-04-08 06:06:00,SystemResetWarning,0824.1,5.01,000.00,018.6,018.3,000.0,027.0,020.4,012.4,0000.0,0006.77,0001.82,0001.22
2024-04-08 06:07:00,SystemResetWarning,0824.1,5.00,000.00,018.6,018.1,000.0,027.0,020.3,012.3,0000.0,0006.72,0001.82,0001.25
2024-04-08 06:08:00,SystemResetWarning,0824.1,5.00,000.00,018.5,017.9,000.0,027.0,020.2,012.2,0000.0,0006.59,0001.83,0001.26
2024-04-08 06:09:00,SystemResetWarning,0824.1,5.00,000.00,018.5,017.8,000.0,027.0,020.1,012.4,0000.0,0005.88,0001.89,0001.28
2024-04-08 06:10:00,SystemResetWarning,0824.2,5.00,000.00,018.5,017.7,000.0,027.0,020.1,012.4,0000.0,0005.30,0001.92,0001.30
2024-04-08 06:11:00,SystemResetWarning,0824.3,5.00,000.00,018.4,017.6,000.0,027.0,020.1,012.3,0000.0,0003.75,0001.97,0001.33
2024-04-08 06:12:00,SystemResetWarning,0824.3,5.01,000.00,018.4,017.6,000.0,027.0,020.0,012.3,0000.0,0004.33,0002.02,0001.34
2024-04-08 06:13:00,SystemResetWarning,0824.3,5.01,000.00,018.4,017.5,000.0,027.0,020.0,012.3,0000.0,0004.35,0002.07,0001.36
2024-04-08 06:14:00,SystemResetWarning,0824.3,5.00,000.00,018.4,017.5,000.0,027.0,020.0,012.4,0000.0,0004.58,0002.15,0001.38
2024-04-08 06:15:00,SystemResetWarning,0824.3,4.99,000.00,018.3,017.5,000.0,026.9,020.0,012.5,0000.0,0004.64,0002.19,0001.40
2024-04-08 06:16:00,SystemResetWarning,0824.2,4.99,000.00,018.3,017.6,000.0,026.9,020.0,012.5,0000.0,0004.73,0002.23,0001.42
2024-04-08 06:17:00,SystemResetWarning,0824.2,5.00,000.00,018.3,017.6,000.0,026.9,020.0,012.5,0000.0,0004.87,0002.28,0001.43
2024-04-08 06:18:00,SystemResetWarning,0824.2,5.01,000.00,018.3,017.6,000.0,026.9,020.0,012.5,0000.0,0004.94,0002.30,0001.43
2024-04-08 06:19:00,SystemResetWarning,0824.2,5.01,000.00,018.3,017.6,000.0,026.9,020.0,012.4,0000.0,0005.03,0002.29,0001.43
2024-04-08 06:20:00,SystemResetWarning,0824.3,5.00,000.00,018.3,017.6,000.0,026.9,020.0,012.5,0000.0,0004.91,0002.24,0001.44
2024-04-08 06:21:00,SystemResetWarning,0824.3,4.99,000.00,018.3,017.6,000.0,026.9,020.0,012.5,0000.0,0004.98,0002.29,0001.45
2024-04-08 06:22:00,SystemResetWarning,0824.3,4.99,000.00,018.3,017.6,000.0,026.9,020.0,012.5,0000.0,0004.90,0002.29,0001.45
2024-04-08 06:23:00,SystemResetWarning,0824.3,4.99,000.00,018.3,017.6,000.0,026.9,020.0,012.4,0000.0,0003.99,0002.27,0001.46
2024-04-08 06:24:00,SystemResetWarning,0824.3,4.99,000.00,018.3,017.6,000.0,026.9,020.0,012.3,0000.0,0004.12,0002.31,0001.46
2024-04-08 06:25:00,SystemResetWarning,0824.3,5.01,000.00,018.3,017.6,000.0,026.9,020.0,012.2,0000.0,0003.96,0002.28,0001.45
2024-04-08 06:26:00,SystemResetWarning,0824.3,5.01,000.00,018.3,017.6,000.0,026.9,020.0,012.2,0000.0,0003.85,0002.25,0001.44
2024-04-08 06:27:00,SystemResetWarning,0824.2,5.01,000.00,018.3,017.6,000.0,026.9,020.0,012.2,0000.0,0004.06,0002.26,0001.43
2024-04-08 06:28:00,SystemResetWarning,0824.2,5.00,000.00,018.3,017.6,000.0,026.9,020.0,012.4,0000.0,0004.12,0002.26,0001.43
2024-04-08 06:29:00,SystemResetWarning,0824.2,5.00,000.00,018.3,017.6,000.0,026.9,020.0,012.6,0000.0,0004.11,0002.23,0001.42
2024-04-08 06:30:00,SystemResetWarning,0824.1,4.99,000.00,018.3,017.6,000.0,026.9,020.0,012.8,0000.0,0004.75,0002.24,0001.40
2024-04-08 06:31:00,SystemResetWarning,0824.2,5.00,000.00,018.3,017.6,000.0,026.9,020.0,012.8,0000.0,0004.80,0002.24,0001.38
2024-04-08 06:32:00,SystemResetWarning,0824.1,5.01,000.00,018.3,017.6,000.0,026.9,020.0,012.5,0000.0,0004.80,0002.20,0001.35
2024-04-08 06:33:00,SystemResetWarning,0824.2,5.00,000.00,018.3,017.6,000.0,026.9,020.0,012.1,0000.0,0004.76,0002.16,0001.33
2024-04-08 06:34:00,SystemResetWarning,0824.1,5.00,000.00,018.3,017.6,000.0,026.9,020.0,012.1,0000.0,0004.93,0002.17,0001.32
2024-04-08 06:35:00,SystemResetWarning,0824.1,5.00,000.00,018.3,017.6,000.0,026.9,020.0,012.3,0000.0,0005.12,0002.16,0001.32
2024-04-08 06:36:00,SystemResetWarning,0824.1,5.00,000.00,018.3,017.6,000.0,026.9,020.0,012.5,0000.0,0005.11,0002.11,0001.31
2024-04-08 06:37:00,SystemResetWarning,0824.2,5.01,000.00,018.3,017.6,000.0,026.9,020.0,012.6,0000.0,0005.29,0002.14,0001.31
2024-04-08 06:38:00,SystemResetWarning,0824.2,4.99,000.00,018.3,017.6,000.0,026.9,020.0,012.6,0000.0,0005.28,0002.13,0001.30
2024-04-08 06:39:00,SystemResetWarning,0824.2,4.99,000.00,018.3,017.6,000.0,026.9,020.0,012.8,0000.0,0005.12,0002.06,0001.27
2024-04-08 06:40:00,SystemResetWarning,0824.1,5.00,000.00,018.3,017.6,000.0,026.9,020.0,012.8,0000.0,0005.07,0002.05,0001.25
2024-04-08 06:41:00,SystemResetWarning,0824.0,5.01,000.00,018.3,017.6,000.0,026.9,020.0,012.5,0000.0,0004.38,0002.07,0001.26
2024-04-08 06:42:00,SystemResetWarning,0824.0,5.01,000.00,018.3,017.6,000.0,026.9,020.0,012.5,0000.0,0004.54,0002.05,0001.25
2024-04-08 06:43:00,SystemResetWarning,0824.0,5.01,000.00,018.3,017.6,000.0,026.9,020.0,012.7,0000.0,0004.44,0001.96,0001.23
2024-04-08 06:44:00,SystemResetWarning,0824.0,5.00,000.00,018.3,017.6,000.0,026.9,020.0,012.8,0000.0,0004.49,0001.99,0001.22
2024-04-08 06:45:00,SystemResetWarning,0824.0,5.00,000.00,018.3,017.6,000.0,026.9,020.0,012.9,0000.0,0005.19,0001.96,0001.21
2024-04-08 06:46:00,SystemResetWarning,0824.0,4.99,000.00,018.3,017.6,000.0,026.9,020.0,013.0,0000.0,0004.85,0001.89,0001.18
2024-04-08 06:47:00,SystemResetWarning,0824.0,5.00,000.00,018.3,017.6,000.0,026.9,020.0,013.1,0000.0,0004.77,0001.88,0001.16
2024-04-08 06:48:00,SystemResetWarning,0824.0,5.00,000.00,018.3,017.6,000.0,026.9,020.0,013.1,0000.0,0004.56,0001.82,0001.15
2024-04-08 06:49:00,SystemResetWarning,0824.0,5.00,000.00,018.3,017.6,000.0,026.9,020.0,013.1,0000.0,0004.34,0001.74,0001.13
2024-04-08 06:50:00,SystemResetWarning,0824.0,5.00,000.00,018.3,017.6,000.0,026.8,020.0,013.1,0000.0,0004.31,0001.76,0001.14
2024-04-08 06:51:00,SystemResetWarning,0824.0,5.00,000.00,018.3,017.6,000.0,026.9,020.0,013.1,0000.0,0004.37,0001.76,0001.14
2024-04-08 06:52:00,SystemResetWarning,0824.0,5.00,000.00,018.3,017.6,000.0,026.9,020.0,013.1,0000.0,0004.49,0001.75,0001.13
2024-04-08 06:53:00,SystemResetWarning,0824.0,5.00,000.00,018.3,017.6,000.0,026.9,020.0,013.2,0000.0,0004.34,0001.69,0001.12
2024-04-08 06:54:00,SystemResetWarning,0824.0,5.00,000.00,018.3,017.6,000.0,026.8,020.0,013.2,0000.0,0004.04,0001.66,0001.11
2024-04-08 06:55:00,SystemResetWarning,0824.0,5.00,000.00,018.3,017.6,000.0,026.8,020.0,013.3,0000.0,0004.01,0001.65,0001.11
2024-04-08 06:56:00,SystemResetWarning,0824.0,5.00,000.00,018.3,017.6,000.0,026.8,020.0,013.3,0000.0,0003.32,0001.58,0001.10
2024-04-08 06:57:00,SystemResetWarning,0824.0,5.00,000.00,018.3,017.6,000.0,026.8,020.0,013.4,0000.0,0003.08,0001.62,0001.10
2024-04-08 06:58:00,SystemResetWarning,0824.0,5.00,000.00,018.3,017.6,000.0,026.8,020.0,013.4,0000.0,0003.06,0001.63,0001.10
2024-04-08 06:59:00,SystemResetWarning,0824.0,5.00,000.00,018.3,017.6,000.0,026.8,020.0,013.4,0000.0,0003.07,0001.64,0001.11
